Location: Ferintosh
(52.7647°N, 112.9692°W)
Time: 22:53:01
(UTC+00:00)

S-56A Canister/Altair - Pass Details

Date: 27 May 2024
Orbit: 637 x 2489 km, 38.9° (Epoch: 19 June)

Event Time Altitude Azimuth Distance (km) Brightness Sun altitude
Rises 18:26:36 0° 270° (W) 4,923 11.5 56.5°
Reaches altitude 10° 18:34:44 10° 230° (SW) 3,257 11.0 57.0°
Maximum altitude 18:35:04 10° 227° (SW) 3,226 11.0 57.0°
Drops below altitude 10° 18:35:24 10° 225° (SW) 3,199 11.0 57.0°
Sets 18:41:42 0° 180° (S) 3,614 11.4 57.4°
